weather.gov     
National Weather Service

Terminal Aerodrome Forecast
NWS Homepage
This page is being discontinued on March 12, 2014.
The same data is available at this site. Please update your bookmarks.
Thank you, and we apologize for the inconvenience.
Please send an email to SR-SRH.Webmaster@noaa.gov with any concerns.


Current Version
Previous Version:    01  02  03  04  05  06  07  08  09  10  11  12  13  14  15  16  17  18  19  20  21  22  23  24  25  26  27  28  29  30  
   31  32  33  34  35  36  37  38  39  
[Printable]
266
FTUS46 KOTX 211139
TAFGEG
TAF
KGEG 211139Z 2112/2212 18008KT P6SM FEW009 BKN020 OVC060
      TEMPO 2112/2116 SCT009 OVC015
     FM211700 20012G16KT P6SM BKN025 OVC040
     FM220200 18007KT P6SM SCT040 BKN200
     FM220900 15007KT P6SM FEW060 BKN130 OVC200=


266
FTUS46 KOTX 211139
TAFGEG
TAF
KGEG 211139Z 2112/2212 18008KT P6SM FEW009 BKN020 OVC060
      TEMPO 2112/2116 SCT009 OVC015
     FM211700 20012G16KT P6SM BKN025 OVC040
     FM220200 18007KT P6SM SCT040 BKN200
     FM220900 15007KT P6SM FEW060 BKN130 OVC200=




U.S. Dept. of Commerce
NOAA National Weather Service
1325 East West Highway
Silver Spring, MD 20910
E-mail: w-nws.webmaster@noaa.gov
Page last modified: May 16, 2007
NATIONAL WEATHER SERVICE: for Safety, for Work, for Fun - FOR LIFE